User: anonymous   Login
Location: Allentsteig
(48.6833°N, 15.3167°E)
Time: 03:35:50
(UTC+00:00)
Language:

Cosmos 2278 Rocket - Orbit

View from above orbital plane
View from above orbital plane
View from above satellite
View from above satellite

Ground track
Ground track

The orbit data is extracted from the following two-line orbital elements,

1 23088U 94023B   20339.17184152 -.00000315  00000-0 -13869-3 0  9996
2 23088  70.9965 144.8937 0004749 309.7623  50.3080 14.14681235374587
Epoch (UTC): 04 December 2020 04:07:27
Eccentricity: 0.0004749
inclination: 70.9965°
perigee height: 840 km
apogee height: 847 km
right ascension of ascending node: 144.8937°
argument of perigee: 309.7623°
revolutions per day: 14.14681235
mean anomaly at epoch: 50.3080°
orbit number at epoch: 37458

The dashed part of the orbit path shows where the satellite is in the earth's shadow,  

DLR